Miscellaneous Local Product
Issued by NWS Hastings, NE

Home | Current Version | Previous Version | Text Only | Print | Product List | Glossary Off
Versions: 1 2 3 4 5 6 7 8 9 10 11 12 13 14 15 16 17 18 19 20 21 22 23 24 25 26 27 28 29 30 31 32 33 34 35 36 37 38 39 40 41 42 43 44 45 46 47 48 49 50

000
AXUS43 KGID 301802
MISGRI

GID CWA HOURLY WEATHER ROUNDUP
NATIONAL WEATHER SERVICE HASTINGS NE
1200 PM CST FRI JAN 30 2015

NOTE: "FAIR" INDICATES FEW OR NO CLOUDS BELOW 12,000 FEET WITH NO
SIGNIFICANT WEATHER AND/OR OBSTRUCTIONS TO VISIBILITY.

...SOUTH CENTRAL NEBRASKA...

CITY           SKY/WX    TMP DP  RH WIND       PRES   REMARKS
GRAND ISLAND   PTSUNNY   37  27  67 S13       30.41F WCI  29
HASTINGS       PTSUNNY   36  25  64 S10       30.39F WCI  28
KEARNEY        PTSUNNY   39  27  60 S14       30.36F WCI  31
ORD            PTSUNNY   35  26  69 S12       30.34F WCI  27
YORK           PTSUNNY   32  28  86 S14       30.44F WCI  22
AURORA         PTSUNNY   35  28  75 S10       30.42F WCI  27
LEXINGTON      CLOUDY    40  28  60 S13G20    30.34F WCI  33
HOLDREGE       PTSUNNY   38  26  61 S15G21    30.37F WCI  29
HEBRON         CLOUDY    36  25  64 S13       30.47F WCI  28

...NEBRASKA PANHANDLE...

CITY           SKY/WX    TMP DP  RH WIND       PRES   REMARKS
CHADRON        MOSUNNY   44  24  45 W3        30.18F
ALLIANCE       PTSUNNY   43  24  47 SW6       30.17F
SCOTTSBLUFF    PTSUNNY   38  26  62 W6        30.18F WCI  33
SIDNEY         PTSUNNY   41  26  55 S8        30.18F

...WESTERN AND NORTH CENTRAL NEBRASKA...

CITY           SKY/WX    TMP DP  RH WIND       PRES   REMARKS
VALENTINE      PTSUNNY   45  24  43 S21       30.20F
AINSWORTH      PTSUNNY   39  26  59 S21G26    30.24F WCI  29
ONEILL         MOSUNNY   36  29  77 S16G22    30.32F WCI  26
BROKEN BOW     PTSUNNY   40  27  59 S14       30.31F WCI  32
IMPERIAL       PTSUNNY   45  27  49 S14       30.24F
NORTH PLATTE   CLOUDY    42  25  50 S17       30.25F
MCCOOK         CLOUDY    44  26  49 S14       30.30F

...EASTERN NEBRASKA...

CITY           SKY/WX    TMP DP  RH WIND       PRES   REMARKS
NORFOLK        SUNNY     36  27  69 S16       30.39F WCI  26
SO SIOUX CITY  MOSUNNY   31  22  69 S12       30.45F WCI  22
TEKAMAH        MOSUNNY   32  23  69 S14       30.48F WCI  22
COLUMBUS       SUNNY     37  25  60 S10       30.43F WCI  30
ALBION         MOSUNNY   34  27  75 S12       30.39F WCI  25
OMAHA EPPLEY   PTSUNNY   29  19  66 S8        30.49F WCI  21
OFFUTT AFB     SUNNY     31  20  63 S8        30.49F WCI  23
MILLARD        SUNNY     31  22  69 S7        30.50F WCI  24
LINCOLN        MOSUNNY   34  26  72 S10       30.49F WCI  26
NEBRASKA CITY  MOSUNNY   29  20  69 S6        30.51F WCI  23
BEATRICE       PTSUNNY   32  25  76 S8        30.50F WCI  25
FALLS CITY     MOSUNNY   31  22  69 S8        30.52F WCI  23

...NORTHERN KANSAS...

CITY           SKY/WX    TMP DP  RH WIND       PRES   REMARKS
GOODLAND       CLOUDY    46  28  49 S20G29    30.26F
HILL CITY      CLOUDY    44  24  45 S16       30.38F
NORTON         CLOUDY    41  21  45 S13       30.34F
PHILLIPSBURG   MOSUNNY   43  27  52 S12       30.40F
SMITH CENTER   SUNNY     39  25  56 S14       30.42F WCI  31
BELOIT         SUNNY     39  27  60 S10       30.44F WCI  32
HAYS           CLOUDY    41  23  48 S16G23    30.41F
RUSSELL        CLOUDY    41  28  60 S13       30.42F
CONCORDIA      CLOUDY    38  27  64 S15       30.46F WCI  29
SALINA         PTSUNNY   42  27  55 S12       30.49F
TOPEKA         PTSUNNY   34  23  64 VRB5      30.54F WCI  30



USA.gov is the U.S. government's official web portal to all federal, state and local government web resources and services.